Погода в Моквине

Украина / Ровненская область     50°59′12″N   26°31′07″E
темп.,
°C
ветер,
м/с
пор.,
м/с
влажн.,
%
обл.,
%
осадки,
мм/ч
давл.,
гПа
погр.,
м
27 ноября, сб
сб2723:00+6юв71480100 0.1 996930
02:00+7ююв71389100 2.9 9931031
05:00+6ююз51087100 0.3 991470
08:00+6ююз51189100 0.6 992628
11:00+6зюз91377100 0.0 9951003
14:00+5зюз8116953 0.0 9971023
17:00+3з510755 0.0 999493
20:00+1зюз348526 0.0 100179
28 ноября, вс
вс2823:00+1юз22895 0.0 100225
02:00+1ююв339158 0.0 100250
05:00+3ююв378486 0.0 1002168
08:00+4ююв3685100 0.1 1002115
11:00+6юв2378100 0.4 1001118
14:00+7вюв2575100 0.4 1000271
17:00+6юв3786100 1.3 999212
20:00+6ююв3786100 1.3 998197
29 ноября, пн
пн2923:00+4ююв4790100 0.0 997121
02:00+4юв3787100 0.0 995126
05:00+4юв41091100 0.0 991179
08:00+5ююв3896100 0.0 990250
11:00+7ююз5992100 0.6 989557
14:00+2з81488100 1.1 991809
17:00+2з81381100 0.0 9921087
20:00+2зюз81583100 0.1 9941443
30 ноября, вт
вт3023:00+1з9168595 0.1 9941333
02:00+2з111873100 0.2 9951319
05:00+1з11187875 0.0 9971031
08:00+1з101777100 0.0 9991232
11:00+2з9137282 0.1 10011249
14:00+2з812675 0.1 10021299
17:00−1з7137287 0.0 1003743
20:00−1зюз6128113 0.0 1003653
1 декабря, ср
ср123:00−1зюз51283100 0.0 1002569
02:00−1юз51278100 0.0 1001641
05:00−1юз61296100 0.7 1000748
08:000зюз51197100 1.3 1000607
11:00+1з41097100 0.3 1002434
14:00+1з51097100 0.4 1003675
17:00+1зюз51097100 0.3 1004589
20:000ююз4994100 0.3 1003227